Terminal Aerodrome Forecast
Issued by NWS

Home | Current Version | Previous Version | Graphics & Text | Print | Product List | Glossary On
Versions: 1 2 3 4 5 6 7 8 9 10 11 12 13 14
000
FTUS43 KOAX 021720
TAFCDR
TAF
KCDR 021720Z 0218/0318 24010KT P6SM FEW120
     FM030100 21006KT P6SM SCT120=

USA.gov is the U.S. government's official web portal to all federal, state and local government web resources and services.